MEASAT-3B

Last updated on Sat Aug 22 2026 00:02:58 GMT+0000 (Coordinated Universal Time)

1 40147U 14054B 26233.50037463 -.00000243 00000+0 00000+0 0 9992 2 40147 0.0304 24.9336 0001793 75.2028 141.3141 1.00269707 43572
UTC large
Height (km)
Speed (km/s)
/
Latitude / Longitude
Inclination (degrees)
Orbital Period (minutes)
Azimuth
Elevation
Range (km)
Doppler Factor

Next 0 passes for location: London (51.5072 / 0.1276)

No passes found over London.
MEASAT-3B